Tracking 27122 objects as of 25-Mar-2023
HD Live streaming from Space Station
objects crossing your sky now

OPS 7898 (P/L 3)

Track OPS 7898 (P/L 3) now!
10-day predictions
OPS 7898 (P/L 3) is classified as:


NORAD ID: 5681
Int'l Code: 1971-110D
Perigee: 983.3 km
Apogee: 998.1 km
Inclination: 70.0 °
Period: 104.8 minutes
Semi major axis: 7361 km
RCS: Unknown
Launch date: December 14, 1971
Source: United States (US)
Launch site: AIR FORCE WESTERN TEST RANGE (AFWTR)
Your satellite tracking list
Your tracking list is empty




NASA's NSSDC Master Catalog

Two Line Element Set (TLE):
1 05681U 71110D   23083.90476447  .00000043  00000-0  98888-4 0  9999
2 05681  69.9876 280.8617 0009993 223.8227 136.2075 13.74471095194622
Source of the keplerian elements: McCants